Satellite: LO-19
Catalog number: 20442
Epoch time:      05223.63252481
Element set:     461
Inclination:      098.2208 deg
RA of node:       254.7822 deg
Eccentricity:    0.0012835
Arg of perigee:   040.2482 deg
Mean anomaly:     319.9642 deg
Mean motion:   14.31932347 rev/day
Decay rate:        2.4e-07 rev/day^2
Epoch rev:           81215
Checksum:              279

Satellite: UO-22
Catalog number: 21575
Epoch time:      05223.53244991
Element set:     477
Inclination:      098.2474 deg
RA of node:       186.7942 deg
Eccentricity:    0.0006277
Arg of perigee:   284.2810 deg
Mean anomaly:     075.7690 deg
Mean motion:   14.39500374 rev/day
Decay rate:        3.2e-07 rev/day^2
Epoch rev:           73846
Checksum:              323

Satellite: KO-23
Catalog number: 22077
Epoch time:      05222.71660445
Element set:    0549
Inclination:      066.0875 deg
RA of node:       032.2552 deg
Eccentricity:    0.0014477
Arg of perigee:   244.6528 deg
Mean anomaly:     115.2985 deg
Mean motion:   12.86432144 rev/day
Decay rate:       -3.7e-07 rev/day^2
Epoch rev:           61060
Checksum:              291

Satellite: AO-27
Catalog number: 22825
Epoch time:      05223.71599904
Element set:     190
Inclination:      098.2523 deg
RA of node:       216.2844 deg
Eccentricity:    0.0009572
Arg of perigee:   098.4076 deg
Mean anomaly:     261.8164 deg
Mean motion:   14.29140018 rev/day
Decay rate:        9.8e-07 rev/day^2
Epoch rev:           61915
Checksum:              315

Satellite: IO-26
Catalog number: 22826
Epoch time:      05223.87827937
Element set:     870
Inclination:      098.2495 deg
RA of node:       217.7132 deg
Eccentricity:    0.0009938
Arg of perigee:   093.3574 deg
Mean anomaly:     266.8748 deg
Mean motion:   14.29381031 rev/day
Decay rate:        2.6e-07 rev/day^2
Epoch rev:           61924
Checksum:              340

Satellite: KO-25
Catalog number: 22828
Epoch time:      05223.51350392
Element set:     118
Inclination:      098.2450 deg
RA of node:       217.5574 deg
Eccentricity:    0.0010834
Arg of perigee:   072.0607 deg
Mean anomaly:     288.1761 deg
Mean motion:   14.29692756 rev/day
Decay rate:        2.0e-07 rev/day^2
Epoch rev:           58742
Checksum:              299

Satellite: PO-28
Catalog number: 22829
Epoch time:      05222.55104335
Element set:    0160
Inclination:      098.2402 deg
RA of node:       217.6463 deg
Eccentricity:    0.0010765
Arg of perigee:   077.4251 deg
Mean anomaly:     282.8134 deg
Mean motion:   14.30058028 rev/day
Decay rate:        3.0e-08 rev/day^2
Epoch rev:           61924
Checksum:              272

Satellite: TO-31
Catalog number: 25396
Epoch time:      05222.73703325
Element set:    0320
Inclination:      098.5264 deg
RA of node:       288.3413 deg
Eccentricity:    0.0003061
Arg of perigee:   041.9828 deg
Mean anomaly:     318.1571 deg
Mean motion:   14.23677841 rev/day
Decay rate:       -4.2e-07 rev/day^2
Epoch rev:           36817
Checksum:              292

Satellite: GO-32
Catalog number: 25397
Epoch time:      05223.75820426
Element set:     808
Inclination:      098.5155 deg
RA of node:       286.7380 deg
Eccentricity:    0.0001846
Arg of perigee:   067.5701 deg
Mean anomaly:     292.5644 deg
Mean motion:   14.23084921 rev/day
Decay rate:       -3.7e-07 rev/day^2
Epoch rev:           36823
Checksum:              315

Satellite: UO-36
Catalog number: 25693
Epoch time:      05223.87019198
Element set:     478
Inclination:      064.5590 deg
RA of node:       112.7081 deg
Eccentricity:    0.0018865
Arg of perigee:   206.0809 deg
Mean anomaly:     153.9347 deg
Mean motion:   14.78526417 rev/day
Decay rate:       -9.6e-07 rev/day^2
Epoch rev:           34005
Checksum:              326

Satellite: SO-41
Catalog number: 26545
Epoch time:      05222.83930687
Element set:     145
Inclination:      064.5586 deg
RA of node:       129.6655 deg
Eccentricity:    0.0052427
Arg of perigee:   297.4895 deg
Mean anomaly:     062.0838 deg
Mean motion:   14.80138123 rev/day
Decay rate:        8.2e-07 rev/day^2
Epoch rev:           26301
Checksum:              315

Satellite: MO-46
Catalog number: 26548
Epoch time:      05222.88775167
Element set:    0259
Inclination:      064.5581 deg
RA of node:       111.3700 deg
Eccentricity:    0.0048620
Arg of perigee:   290.8626 deg
Mean anomaly:     068.7243 deg
Mean motion:   14.82778426 rev/day
Decay rate:       1.01e-06 rev/day^2
Epoch rev:           26340
Checksum:              312

Satellite: SO-42
Catalog number: 26549
Epoch time:      05222.73543762
Element set:    0213
Inclination:      064.5574 deg
RA of node:       138.9023 deg
Eccentricity:    0.0054415
Arg of perigee:   301.0425 deg
Mean anomaly:     058.5391 deg
Mean motion:   14.79016289 rev/day
Decay rate:       2.20e-06 rev/day^2
Epoch rev:           26282
Checksum:              289

Satellite: NO-44
Catalog number: 26931
Epoch time:      05223.87564670
Element set:      93
Inclination:      067.0526 deg
RA of node:       084.3674 deg
Eccentricity:    0.0005514
Arg of perigee:   265.3760 deg
Mean anomaly:     094.6684 deg
Mean motion:   14.29395410 rev/day
Decay rate:      -1.33e-06 rev/day^2
Epoch rev:           20172
Checksum:              303

